TimePST,TemperatureF,Dew PointF,Humidity,Sea Level PressureIn,VisibilityMPH,Wind Direction,Wind SpeedMPH,Gust SpeedMPH,PrecipitationIn,Events,Conditions,WindDirDegrees,DateUTC
12:15 AM,39.2,35.6,87,30.11,10.0,Calm,Calm,-,N/A,,Mostly Cloudy,0,2013-01-29 08:15:00
12:35 AM,39.2,35.6,87,30.11,10.0,Calm,Calm,-,N/A,,Mostly Cloudy,0,2013-01-29 08:35:00
12:55 AM,39.2,35.6,87,30.12,10.0,South,3.5,-,N/A,,Overcast,170,2013-01-29 08:55:00
1:15 AM,39.2,35.6,87,30.11,10.0,South,3.5,-,N/A,,Overcast,170,2013-01-29 09:15:00
1:35 AM,39.2,35.6,87,30.12,10.0,SSE,4.6,-,N/A,,Overcast,150,2013-01-29 09:35:00
1:55 AM,39.2,35.6,87,30.13,10.0,SSE,4.6,-,0.01,,Overcast,160,2013-01-29 09:55:00
2:15 AM,39.2,35.6,87,30.13,10.0,SSW,3.5,-,N/A,,Overcast,210,2013-01-29 10:15:00
2:35 AM,39.2,35.6,87,30.14,10.0,Calm,Calm,-,0.01,,Overcast,0,2013-01-29 10:35:00
2:55 AM,39.2,35.6,87,30.14,10.0,Calm,Calm,-,0.01,,Overcast,0,2013-01-29 10:55:00
3:15 AM,39.2,35.6,87,30.15,10.0,Calm,Calm,-,N/A,,Overcast,0,2013-01-29 11:15:00
3:35 AM,39.2,35.6,87,30.15,10.0,Calm,Calm,-,0.01,,Overcast,0,2013-01-29 11:35:00
3:55 AM,39.2,35.6,87,30.16,10.0,Calm,Calm,-,0.01,,Overcast,0,2013-01-29 11:55:00
4:15 AM,39.2,35.6,87,30.17,10.0,Calm,Calm,-,0.01,,Overcast,0,2013-01-29 12:15:00
4:35 AM,39.2,35.6,87,30.17,10.0,Calm,Calm,-,0.01,,Mostly Cloudy,0,2013-01-29 12:35:00
4:55 AM,39.2,35.6,87,30.17,8.0,Calm,Calm,-,0.02,,Clear,0,2013-01-29 12:55:00
5:15 AM,39.2,35.6,87,30.18,9.0,Calm,Calm,-,N/A,,Clear,0,2013-01-29 13:15:00
5:35 AM,39.2,35.6,87,30.18,10.0,Calm,Calm,-,N/A,,Partly Cloudy,0,2013-01-29 13:35:00
5:55 AM,39.2,35.6,87,30.19,10.0,Calm,Calm,-,N/A,,Mostly Cloudy,0,2013-01-29 13:55:00
6:15 AM,39.2,35.6,87,30.19,10.0,Calm,Calm,-,N/A,,Mostly Cloudy,0,2013-01-29 14:15:00
6:35 AM,39.2,35.6,87,30.21,10.0,Calm,Calm,-,0.01,,Partly Cloudy,0,2013-01-29 14:35:00
6:55 AM,39.2,35.6,87,30.21,10.0,Calm,Calm,-,0.01,,Scattered Clouds,0,2013-01-29 14:55:00
7:15 AM,39.2,35.6,87,30.22,10.0,Calm,Calm,-,N/A,,Mostly Cloudy,0,2013-01-29 15:15:00
7:35 AM,39.2,35.6,87,30.24,10.0,Calm,Calm,-,N/A,,Mostly Cloudy,0,2013-01-29 15:35:00
7:55 AM,39.2,35.6,87,30.24,8.0,Calm,Calm,-,N/A,,Overcast,0,2013-01-29 15:55:00
8:15 AM,39.2,35.6,87,30.25,8.0,Calm,Calm,-,N/A,,Overcast,0,2013-01-29 16:15:00
8:35 AM,39.2,37.4,93,30.25,8.0,Calm,Calm,-,N/A,,Overcast,0,2013-01-29 16:35:00
8:55 AM,41.0,37.4,87,30.26,10.0,Calm,Calm,-,N/A,,Overcast,0,2013-01-29 16:55:00
9:15 AM,41.0,37.4,87,30.27,10.0,Calm,Calm,-,N/A,,Mostly Cloudy,0,2013-01-29 17:15:00
9:35 AM,41.0,37.4,87,30.27,10.0,North,3.5,-,N/A,,Mostly Cloudy,10,2013-01-29 17:35:00
9:55 AM,42.8,39.2,87,30.28,10.0,Calm,Calm,-,N/A,,Mostly Cloudy,0,2013-01-29 17:55:00
10:15 AM,42.8,39.2,87,30.30,10.0,Calm,Calm,-,N/A,,Mostly Cloudy,0,2013-01-29 18:15:00
10:35 AM,42.8,39.2,87,30.31,10.0,Calm,Calm,-,N/A,,Overcast,0,2013-01-29 18:35:00
10:55 AM,42.8,39.2,87,30.32,10.0,NNW,3.5,-,N/A,,Overcast,330,2013-01-29 18:55:00
11:15 AM,42.8,39.2,87,30.31,10.0,Calm,Calm,-,N/A,,Overcast,0,2013-01-29 19:15:00
11:35 AM,44.6,39.2,81,30.31,10.0,WNW,3.5,-,N/A,,Overcast,290,2013-01-29 19:35:00
11:55 AM,44.6,39.2,81,30.32,10.0,West,3.5,-,N/A,,Overcast,260,2013-01-29 19:55:00
12:15 PM,44.6,39.2,81,30.33,10.0,Calm,Calm,-,N/A,,Mostly Cloudy,0,2013-01-29 20:15:00
12:35 PM,44.6,39.2,81,30.33,10.0,Calm,Calm,-,N/A,,Scattered Clouds,0,2013-01-29 20:35:00
12:55 PM,44.6,39.2,81,30.32,10.0,Calm,Calm,-,N/A,,Scattered Clouds,0,2013-01-29 20:55:00
1:15 PM,46.4,39.2,76,30.32,10.0,Calm,Calm,-,N/A,,Partly Cloudy,0,2013-01-29 21:15:00
1:35 PM,46.4,39.2,76,30.33,10.0,Calm,Calm,-,N/A,,Partly Cloudy,0,2013-01-29 21:35:00
1:55 PM,46.4,39.2,76,30.32,10.0,Calm,Calm,-,N/A,,Clear,0,2013-01-29 21:55:00
2:15 PM,46.4,39.2,76,30.33,10.0,Calm,Calm,-,N/A,,Partly Cloudy,0,2013-01-29 22:15:00
2:35 PM,46.4,39.2,76,30.32,10.0,Calm,Calm,-,N/A,,Clear,0,2013-01-29 22:35:00
2:55 PM,46.4,39.2,76,30.32,10.0,Calm,Calm,-,N/A,,Clear,0,2013-01-29 22:55:00
3:15 PM,44.6,39.2,81,30.32,10.0,Calm,Calm,-,N/A,,Scattered Clouds,0,2013-01-29 23:15:00
3:35 PM,44.6,39.2,81,30.32,10.0,Calm,Calm,-,N/A,,Overcast,0,2013-01-29 23:35:00
3:55 PM,44.6,39.2,81,30.33,10.0,Calm,Calm,-,N/A,,Overcast,0,2013-01-29 23:55:00
4:15 PM,44.6,39.2,81,30.34,10.0,Calm,Calm,-,N/A,,Overcast,0,2013-01-30 00:15:00
4:35 PM,44.6,39.2,81,30.34,10.0,NNE,3.5,-,N/A,,Overcast,20,2013-01-30 00:35:00
4:55 PM,44.6,39.2,81,30.33,10.0,Calm,Calm,-,N/A,,Overcast,0,2013-01-30 00:55:00
5:15 PM,44.6,39.2,81,30.33,10.0,Calm,Calm,-,N/A,,Overcast,0,2013-01-30 01:15:00
5:35 PM,44.6,39.2,81,30.33,10.0,South,6.9,-,N/A,,Overcast,180,2013-01-30 01:35:00
5:55 PM,44.6,39.2,81,30.33,10.0,South,10.4,-,N/A,,Overcast,180,2013-01-30 01:55:00
6:15 PM,44.6,39.2,81,30.34,10.0,South,11.5,-,N/A,,Overcast,190,2013-01-30 02:15:00
6:35 PM,44.6,39.2,81,30.33,10.0,South,10.4,16.1,N/A,,Overcast,190,2013-01-30 02:35:00
6:55 PM,44.6,39.2,81,30.33,10.0,SSW,6.9,-,N/A,,Overcast,210,2013-01-30 02:55:00
7:15 PM,44.6,39.2,81,30.35,10.0,SSW,4.6,-,N/A,,Overcast,210,2013-01-30 03:15:00
7:35 PM,44.6,39.2,81,30.34,10.0,South,8.1,-,N/A,,Overcast,190,2013-01-30 03:35:00
7:55 PM,44.6,39.2,81,30.34,10.0,South,10.4,-,N/A,,Overcast,190,2013-01-30 03:55:00
8:15 PM,44.6,39.2,81,30.35,10.0,SSW,10.4,-,N/A,,Overcast,200,2013-01-30 04:15:00
8:35 PM,44.6,39.2,81,30.34,10.0,SSW,13.8,19.6,N/A,,Overcast,210,2013-01-30 04:35:00
8:55 PM,44.6,39.2,81,30.34,10.0,SSW,15.0,-,N/A,,Overcast,210,2013-01-30 04:55:00
9:15 PM,44.6,37.4,76,30.33,10.0,SSW,11.5,-,N/A,,Overcast,200,2013-01-30 05:15:00
9:35 PM,44.6,37.4,76,30.33,10.0,SSW,13.8,17.3,N/A,,Overcast,210,2013-01-30 05:35:00
9:55 PM,44.6,37.4,76,30.34,10.0,SSW,12.7,-,N/A,,Overcast,210,2013-01-30 05:55:00
10:35 PM,42.8,37.4,81,30.34,10.0,SSW,11.5,-,N/A,,Overcast,200,2013-01-30 06:35:00
10:55 PM,42.8,39.2,87,30.33,10.0,SSW,11.5,18.4,N/A,,Overcast,200,2013-01-30 06:55:00
11:15 PM,44.6,39.2,81,30.34,10.0,South,13.8,-,N/A,,Mostly Cloudy,190,2013-01-30 07:15:00
11:35 PM,42.8,39.2,87,30.33,10.0,South,12.7,-,N/A,,Overcast,190,2013-01-30 07:35:00
11:55 PM,42.8,39.2,87,30.34,10.0,South,12.7,-,N/A,,Overcast,190,2013-01-30 07:55:00